Flag for Colombia Weather past 2 weeks in Buenaventura, Colombia

Now
73 °F

Passing clouds.


Feels Like: 74 °F
Forecast: 75 / 87 °F
Wind: 5 mph from Northeast

Location: Cali / Alfonso Bonillaaragon

Current Time: Sep 20, 2014 at 9:35:28 PM

Latest Report: Sep 20, 2014 at 9:00 PM


Visibility: N/A

Pressure: 30.02 "Hg

Humidity: 78%

Dew point: 66 °F

Location of BuenaventuraLocation

Historic Weather in Buenaventura — Graph

°F

Buenaventura temperature yesterday

Maximum temperature yesterday: 86 °F (at 1:00 PM)
Minimum temperature yesterday: 68 °F (at 2:00 AM)
Average temperature yesterday: 76 °F

Past Weeks' High & Low Weather Summary

 TemperatureHumidityPressure
High93 °F (Sep 9, 2:00 PM)94% (Sep 10, 3:00 AM)30.14 "Hg (Sep 10, 3:00 AM)
Low66 °F (Sep 9, 6:00 AM)36% (Sep 9, 2:00 PM)28.19 "Hg (Sep 15, 2:00 PM)
Average76 °F70%29.95 "Hg
* Reported Sep 5 8:00 PM — Sep 20 8:00 PM, Buenaventura, Weather by CustomWeather, © 2014

Note: Actual official high and low records may vary slightly from our data, if they occured in-between our weather recording intervals... More about our weather records

Advertising

Buenaventura weather history for previous 24 hours

 ConditionsComfort  
Time TempWeatherWind HumidityBarometerVisibility
8:00 PM
Sep 20
73 °FPassing clouds.No wind78%30.00 "HgN/A
7:00 PM75 °FPassing clouds.No wind69%29.96 "HgN/A
6:00 PM77 °FPartly sunny.3 mph65%29.94 "HgN/A
5:00 PM77 °FScattered showers. Partly sunny.3 mph65%29.93 "HgN/A
4:00 PM79 °FScattered showers. Broken clouds.5 mph61%29.93 "Hg6 mi
3:00 PM79 °FScattered showers. Broken clouds.7 mph65%29.94 "Hg6 mi
2:00 PM79 °FScattered showers. Broken clouds.7 mph65%29.98 "Hg6 mi
1:00 PM77 °FScattered showers. Partly sunny.12 mph74%30.02 "Hg6 mi
8:00 AM70 °FMore clouds than sun.12 mph88%30.09 "Hg3 mi
7:00 AM70 °FFog.3 mph88%30.06 "Hg1 mi
6:00 AM68 °FFog.5 mph94%30.04 "Hg1 mi
5:00 AM68 °FDrizzle. Mostly cloudy.2 mph94%30.02 "Hg3 mi
4:00 AM68 °FOvercast.No wind94%29.99 "Hg4 mi
3:00 AM70 °FOvercast.2 mph88%29.99 "Hg4 mi
2:00 AM68 °FOvercast.No wind94%30.00 "Hg4 mi
1:00 AM68 °FDrizzle. Mostly cloudy.2 mph94%30.00 "Hg3 mi
12:00 AM70 °FPassing clouds.2 mph83%30.02 "Hg6 mi
11:00 PM
Sep 19
72 °FPassing clouds.3 mph83%30.03 "Hg6 mi
10:00 PM72 °FPassing clouds.7 mph78%30.03 "HgN/A
9:00 PM75 °FPassing clouds.8 mph69%30.02 "HgN/A
Weather by CustomWeather, © 2014

See weather overviewHow to use our weather pages